Fort Lauderdale, FL

1:03 AM EST on February 21, 2018 (GMT -0500)
Fort Lauderdale Executive

Weather History for KFXE - September, 2012

Change the Weather History Date:

Wednesday, September 26, 2012

  Actual Average Record
Temperature  
Mean Temperature 80 °F -  
Max Temperature 86 °F 89 °F 95 °F (1980)
Min Temperature 77 °F 73 °F 65 °F (1977)
Cooling Degree Days 16    
Growing Degree Days 30 (Base 50)    
Moisture  
Dew Point 74 °F    
Average Humidity 78    
Maximum Humidity 90    
Minimum Humidity 69    
Precipitation  
Precipitation 0.01 in - - ()
Sea Level Pressure  
Sea Level Pressure 30.07 in    
Wind  
Wind Speed 3 mph (ENE)    
Max Wind Speed 10 mph    
Max Gust Speed -    
Visibility 10 miles    
Events Rain    
Averages and records for this station are not official NWS values.
T = Trace of Precipitation, MM = Missing Value Source: NWS Daily Summary

Daily Weather History Graph

Daily Weather History Graph

Search for Another Location

Airport or City:

Trip Planner

Search our weather history database for the weather conditions in past years. The results will help you decide how hot, cold, wet, or windy it might be!

Date:

Astronomy

Sep. 26, 2012 Rise Set
Actual Time 7:11 AM EDT 7:12 PM EDT
Civil Twilight 6:48 AM EDT 7:35 PM EDT
Nautical Twilight 6:21 AM EDT 8:01 PM EDT
Astronomical Twilight 5:54 AM EDT 8:28 PM EDT
Moon 4:57 PM EDT (9/26) 3:52 AM EDT (9/26)
Length of Visible Light 12h 47m
Length of Day
12h 00m
Waxing Gibbous, 88% of the Moon is Illuminated
Sep 26
Waxing Gibbous
Sep 29
Full
Oct 8
Last Quarter
Oct 15
New
Oct 21
First Quarter

Hourly Weather History & Observations

Time (EDT) Temp. Heat Index Dew Point Humidity Pressure Visibility Wind Dir Wind Speed Gust Speed Precip Events Conditions
12:53 AM 78.8 °F - 75.2 °F 89% 30.07 in 10.0 mi Calm Calm - N/A   Clear
1:53 AM 77.0 °F - 73.9 °F 90% 30.06 in 10.0 mi Calm Calm - 0.01 in   Clear
2:53 AM 78.1 °F - 72.0 °F 81% 30.04 in 10.0 mi ENE 4.6 mph - N/A   Clear
3:53 AM 78.8 °F - 71.6 °F 78% 30.02 in 10.0 mi NE 3.5 mph - N/A   Mostly Cloudy
4:53 AM 77.0 °F - 73.9 °F 90% 30.02 in 10.0 mi Calm Calm - N/A   Partly Cloudy
5:53 AM 77.0 °F - 73.9 °F 90% 30.03 in 10.0 mi Calm Calm - N/A   Clear
6:53 AM 77.0 °F - 73.9 °F 90% 30.06 in 10.0 mi Calm Calm - N/A   Mostly Cloudy
7:53 AM 79.0 °F - 73.0 °F 82% 30.06 in 10.0 mi ENE 3.5 mph - N/A   Overcast
8:53 AM 81.0 °F 86.2 °F 73.9 °F 79% 30.07 in 10.0 mi East 6.9 mph - N/A   Mostly Cloudy
9:53 AM 82.9 °F 89.4 °F 73.9 °F 74% 30.08 in 10.0 mi East 8.1 mph - N/A   Overcast
10:53 AM 82.9 °F 89.4 °F 73.9 °F 74% 30.09 in 10.0 mi East 10.4 mph - N/A   Mostly Cloudy
11:53 AM 84.9 °F 92.1 °F 73.9 °F 69% 30.09 in 10.0 mi ENE 6.9 mph - N/A   Mostly Cloudy
12:53 PM 84.9 °F 93.3 °F 75.0 °F 72% 30.09 in 10.0 mi East 9.2 mph - N/A   Scattered Clouds
1:53 PM 84.9 °F 93.3 °F 75.0 °F 72% 30.08 in 10.0 mi East 8.1 mph - N/A   Mostly Cloudy
2:53 PM 84.9 °F 93.3 °F 75.0 °F 72% 30.06 in 10.0 mi ENE 8.1 mph - 0.00 in   Mostly Cloudy
3:53 PM 84.0 °F 91.9 °F 75.0 °F 74% 30.05 in 10.0 mi ENE 8.1 mph - N/A   Scattered Clouds
4:53 PM 82.9 °F 88.8 °F 73.0 °F 72% 30.04 in 10.0 mi NE 8.1 mph - N/A   Scattered Clouds
5:53 PM 82.9 °F 88.8 °F 73.0 °F 72% 30.05 in 10.0 mi Variable 4.6 mph - N/A   Mostly Cloudy
6:53 PM 82.0 °F 86.7 °F 72.0 °F 71% 30.07 in 10.0 mi NE 3.5 mph - N/A   Mostly Cloudy
7:53 PM 81.0 °F 85.2 °F 72.0 °F 74% 30.09 in 10.0 mi Calm Calm - 0.00 in Rain Light Rain
8:53 PM 80.1 °F 84.2 °F 73.0 °F 79% 30.08 in 10.0 mi NNE 4.6 mph - 0.00 in Rain Light Rain
9:53 PM 81.0 °F 86.2 °F 73.9 °F 79% 30.08 in 10.0 mi East 8.1 mph - 0.00 in   Mostly Cloudy
10:53 PM 81.0 °F 86.2 °F 73.9 °F 79% 30.09 in 10.0 mi Calm Calm - N/A   Partly Cloudy
11:53 PM 82.0 °F 87.9 °F 73.9 °F 76% 30.09 in 10.0 mi NNE 4.6 mph - N/A   Scattered Clouds